User: anonymous   Login
Location: CNYAC Observatory
(43.2150°N, 74.9500°W)
Time: 04:57:06
(UTC-04:00)
Language:

Meteor 1-22 Rocket - Orbit

View from above orbital plane
View from above orbital plane
View from above satellite
View from above satellite

Ground track
Ground track

The orbit data is extracted from the following two-line orbital elements,

1  8294U 75087B   18111.92496517 -.00000016 +00000-0 -15199-4 0  9993
2  8294 081.2154 081.6629 0105549 250.1955 108.7811 14.08616997188069
Epoch (UTC): 21 April 2018 22:11:56
Eccentricity: 0.0105549
inclination: 81.2154°
perigee height: 787 km
apogee height: 940 km
right ascension of ascending node: 81.6629°
argument of perigee: 250.1955°
revolutions per day: 14.08616997
mean anomaly at epoch: 108.7811°
orbit number at epoch: 18806

The dashed part of the orbit path shows where the satellite is in the earth's shadow,  

DLR